Location: Madrid
(40.4168°N, 3.7038°W)
Time: 07:12:34
(UTC+02:00)

Mayak - Visible Passes

Search period start: 20 July 2018 00:00
Search period end: 30 July 2018 00:00
Orbit: 582 x 605 km, 97.6° (Epoch: 19 July)

Date Brightness Start Highest point End Pass type
(mag) Time Alt. Az. Time Alt. Az. Time Alt. Az.
20 Jul 1.2 00:28:11 10° ENE 00:28:46 12° ENE 00:28:46 12° ENE visible
20 Jul 0.1 02:02:25 10° N 02:05:23 36° NW 02:05:23 36° NW visible
21 Jul 1.0 00:36:50 10° NE 00:37:58 15° ENE 00:37:58 15° ENE visible
21 Jul 0.4 02:11:43 10° N 02:14:35 30° NW 02:14:35 30° NW visible
22 Jul 0.8 00:45:38 10° NE 00:47:10 18° ENE 00:47:10 18° ENE visible
22 Jul 0.6 02:21:03 10° NNW 02:23:47 25° NW 02:23:47 25° NW visible
23 Jul 0.7 00:54:31 10° NE 00:56:22 21° NE 00:56:22 21° NE visible
23 Jul 0.9 02:30:27 10° NNW 02:32:59 21° NW 02:32:59 21° NW visible
24 Jul 0.5 01:03:30 10° NNE 01:05:34 25° NE 01:05:34 25° NE visible
24 Jul 1.1 02:39:56 10° NNW 02:42:11 17° WNW 02:42:11 17° WNW visible
25 Jul 0.4 01:12:31 10° NNE 01:14:45 29° NE 01:14:45 29° NE visible
25 Jul 1.3 02:49:34 10° NNW 02:51:22 14° WNW 02:51:22 14° WNW visible
26 Jul 0.3 01:21:36 10° NNE 01:23:57 32° NNE 01:23:57 32° NNE visible
26 Jul 1.5 02:59:31 10° NW 03:00:34 11° WNW 03:00:34 11° WNW visible
27 Jul 0.2 01:30:43 10° NNE 01:33:08 34° NNE 01:33:08 34° NNE visible
28 Jul 0.3 01:39:52 10° N 01:42:20 35° N 01:42:20 35° N visible
29 Jul 0.4 01:49:03 10° N 01:51:30 33° N 01:51:30 33° N visible
